Weather History for Gdansk Airport, Poland

Change the Weather History Date:

Saturday, February 16, 2013

  Actual Average Record
Temperature  
Mean Temperature 29 °F -  
Max Temperature 32 °F 37 °F 48 °F (1998)
Min Temperature 26 °F 25 °F 5 °F (2003)
Degree Days  
Heating Degree Days 36    
Moisture  
Dew Point 27 °F    
Average Humidity 88    
Maximum Humidity 93    
Minimum Humidity 80    
Precipitation  
Precipitation 0.00 in - - ()
Sea Level Pressure  
Sea Level Pressure 30.26 in    
Wind  
Wind Speed 4 mph ()    
Max Wind Speed 10 mph    
Max Gust Speed -    
Visibility 5.6 miles    
Events Snow    
Averages and records for this station are not official NWS values.
T = Trace of Precipitation, MM = Missing Value Source: Averaged Metar Reports

Daily Weather History Graph

Daily Weather History Graph

Search for Another Location

Airport:

Trip Planner

Search our weather history database for the weather conditions in past years. The results will help you decide how hot, cold, wet, or windy it might be!

Date:

Astronomy

Feb. 16, 2013 Rise Set
Actual Time 7:04 AM CET 4:56 PM CET
Civil Twilight 6:27 AM CET 5:33 PM CET
Nautical Twilight 5:46 AM CET 6:15 PM CET
Astronomical Twilight 5:04 AM CET 6:56 PM CET
Moon 8:59 AM CET (2/16) No Moon Set
Length of Visible Light 11h 05m
Length of Day
9h 51m
Waxing Crescent, 37% of the Moon is Illuminated
Feb 16
Waxing Crescent
Feb 17
First Quarter
Feb 25
Full
Mar 4
Last Quarter
Mar 11
New

Hourly Weather History & Observations

Time (CET) Temp. Windchill Dew Point Humidity Pressure Visibility Wind Dir Wind Speed Gust Speed Precip Events Conditions
12:00 AM 32.0 °F 28.7 °F 26.6 °F 80% 30.21 in 6.2 mi East 3.5 mph - N/A   Mostly Cloudy
12:30 AM 32.0 °F 27.5 °F 26.6 °F 80% 30.21 in 6.2 mi East 4.6 mph - N/A   Mostly Cloudy
1:00 AM 32.0 °F 26.4 °F 26.6 °F 80% 30.21 in 6.2 mi East 5.8 mph - N/A   Mostly Cloudy
1:30 AM 32.0 °F 27.5 °F 26.6 °F 80% 30.21 in 6.2 mi East 4.6 mph - N/A   Mostly Cloudy
2:00 AM 30.2 °F 26.7 °F 26.6 °F 86% 30.21 in 6.2 mi East 3.5 mph - N/A   Mostly Cloudy
2:30 AM 30.2 °F 26.7 °F 26.6 °F 86% 30.21 in 6.2 mi East 3.5 mph - N/A   Mostly Cloudy
3:00 AM 30.2 °F 26.7 °F 26.6 °F 86% 30.21 in 6.2 mi East 3.5 mph - N/A   Overcast
3:30 AM 30.2 °F 26.7 °F 28.4 °F 93% 30.21 in 6.2 mi East 3.5 mph - N/A   Overcast
4:00 AM 30.2 °F 21.3 °F 26.6 °F 86% 30.21 in 6.2 mi East 10.4 mph - N/A   Overcast
4:30 AM 30.2 °F 25.4 °F 28.4 °F 93% 30.21 in 6.2 mi East 4.6 mph - N/A   Overcast
5:00 AM 30.2 °F - 28.4 °F 93% 30.21 in 6.2 mi ESE 2.3 mph - N/A   Overcast
5:30 AM 30.2 °F - 28.4 °F 93% 30.21 in 6.2 mi ESE 2.3 mph - N/A   Overcast
6:00 AM 30.2 °F - 28.4 °F 93% 30.21 in 6.2 mi East 2.3 mph - N/A   Overcast
6:30 AM 30.2 °F - 28.4 °F 93% 30.24 in 6.2 mi Variable 2.3 mph - N/A   Overcast
7:00 AM 30.2 °F - 28.4 °F 93% 30.24 in 6.2 mi Variable 2.3 mph - N/A   Overcast
7:30 AM 30.2 °F 26.7 °F 26.6 °F 86% 30.24 in 6.2 mi ESE 3.5 mph - N/A   Overcast
8:00 AM 30.2 °F - 28.4 °F 93% 30.24 in 6.2 mi ESE 2.3 mph - N/A   Mostly Cloudy
8:30 AM 30.2 °F - 28.4 °F 93% 30.24 in 6.2 mi East 2.3 mph - N/A   Mostly Cloudy
9:00 AM 30.2 °F 25.4 °F 28.4 °F 93% 30.24 in 3.7 mi ENE 4.6 mph - N/A Snow Light Snow
9:30 AM 30.2 °F - 28.4 °F 93% 30.27 in 2.5 mi Variable 2.3 mph - N/A Snow Light Snow
10:00 AM 30.2 °F - 28.4 °F 93% 30.27 in 2.5 mi Variable 2.3 mph - N/A Snow Light Snow
10:30 AM 30.2 °F 26.7 °F 28.4 °F 93% 30.27 in 2.5 mi ESE 3.5 mph - N/A Snow Light Snow
11:00 AM 30.2 °F 25.4 °F 28.4 °F 93% 30.27 in 3.7 mi SE 4.6 mph - N/A Snow Light Snow
11:30 AM 30.2 °F 25.4 °F 28.4 °F 93% 30.27 in 5.0 mi ESE 4.6 mph - N/A Snow Light Snow Grains
12:00 PM 30.2 °F 25.4 °F 28.4 °F 93% 30.27 in 4.3 mi ESE 4.6 mph - N/A Snow Light Snow Grains
12:30 PM 30.2 °F 25.4 °F 28.4 °F 93% 30.27 in 3.7 mi SE 4.6 mph - N/A Snow Light Snow Grains
1:00 PM 30.2 °F 26.7 °F 28.4 °F 93% 30.27 in 3.7 mi ESE 3.5 mph - N/A Snow Light Snow Grains
1:30 PM 30.2 °F 26.7 °F 26.6 °F 86% 30.27 in 4.3 mi ESE 3.5 mph - N/A   Mostly Cloudy
2:00 PM 30.2 °F - 26.6 °F 86% 30.27 in 4.3 mi Variable 2.3 mph - N/A   Mostly Cloudy
2:30 PM 30.2 °F - 26.6 °F 86% 30.27 in 5.0 mi Variable 2.3 mph - N/A   Mostly Cloudy
3:00 PM 30.2 °F - 26.6 °F 86% 30.27 in 6.2 mi Variable 2.3 mph - N/A   Mostly Cloudy
3:30 PM 30.2 °F - 26.6 °F 86% 30.27 in 6.2 mi Variable 1.2 mph - N/A   Mostly Cloudy
4:00 PM 30.2 °F - 26.6 °F 86% 30.27 in 6.2 mi Variable 2.3 mph - N/A   Overcast
4:30 PM 30.2 °F 26.7 °F 24.8 °F 80% 30.27 in 6.2 mi East 3.5 mph - N/A   Overcast
5:00 PM 30.2 °F 25.4 °F 24.8 °F 80% 30.27 in 6.2 mi NNE 4.6 mph - N/A   Overcast
5:30 PM 30.2 °F 26.7 °F 26.6 °F 86% 30.27 in 6.2 mi ENE 3.5 mph - N/A   Overcast
6:00 PM 28.4 °F - 24.8 °F 86% 30.27 in 6.2 mi Variable 2.3 mph - N/A   Overcast
6:30 PM 28.4 °F 24.6 °F 24.8 °F 86% 30.30 in 6.2 mi NE 3.5 mph - N/A   Overcast
7:00 PM 28.4 °F 22.2 °F 24.8 °F 86% 30.30 in 6.2 mi NNE 5.8 mph - N/A   Overcast
7:30 PM 28.4 °F 23.3 °F 24.8 °F 86% 30.30 in 6.2 mi ENE 4.6 mph - N/A   Mostly Cloudy
8:00 PM 28.4 °F 23.3 °F 24.8 °F 86% 30.30 in 6.2 mi ENE 4.6 mph - N/A   Mostly Cloudy
8:30 PM 28.4 °F 23.3 °F 24.8 °F 86% 30.30 in 6.2 mi ENE 4.6 mph - N/A   Mostly Cloudy
9:00 PM 28.4 °F 21.2 °F 24.8 °F 86% 30.30 in 6.2 mi East 6.9 mph - N/A   Mostly Cloudy
9:30 PM 28.4 °F 21.2 °F 24.8 °F 86% 30.30 in 6.2 mi ENE 6.9 mph - N/A   Mostly Cloudy
10:00 PM 28.4 °F 22.2 °F 24.8 °F 86% 30.30 in 6.2 mi ENE 5.8 mph - N/A   Mostly Cloudy
10:30 PM 26.6 °F 20.0 °F 24.8 °F 93% 30.30 in 6.2 mi ENE 5.8 mph - N/A   Mostly Cloudy
11:00 PM 26.6 °F 19.1 °F 24.8 °F 93% 30.30 in 6.2 mi ENE 6.9 mph - N/A   Mostly Cloudy
11:30 PM 26.6 °F 19.1 °F 24.8 °F 93% 30.30 in 5.0 mi East 6.9 mph - N/A   Mostly Cloudy